Hourly Data Report for July 10, 2004

TORONTO CITY
ONTARIO

43°40'00.000" N
79°24'00.000" W
112.50 m
6158355
71508
XTO

Download Data

Hourly Data (July 2004)
Hourly Data Report for July 10, 2004
TIME
LST
Temp Definition
°C
Dew Point Definition
°C
Rel Hum Definition
%
Precip. Amount Definition
mm

Wind Dir Definition
10's deg

Wind Spd Definition
km/h
Visibility Definition
km
Stn Press Definition
kPa
Hmdx Definition


Wind Chill Definition


Weather Definition


00:00 18.9 15.5 81   LegendMM LegendMM LegendMM 100.52     LegendNANA
01:00 18.8 15.8 83   LegendMM LegendMM LegendMM 100.51     LegendNANA
02:00 18.1 15.4 84   LegendMM LegendMM LegendMM 100.54     LegendNANA
03:00 17.7 15.6 88   LegendMM LegendMM LegendMM 100.58     LegendNANA
04:00 17.9 15.7 87   LegendMM LegendMM LegendMM 100.57     LegendNANA
05:00 17.7 15.6 88   LegendMM LegendMM LegendMM 100.58     LegendNANA
06:00 17.7 15.2 85   LegendMM LegendMM LegendMM 100.61     LegendNANA
07:00 18.4 15.3 82   LegendMM LegendMM LegendMM 100.66     LegendNANA
08:00 19.5 15.3 77   LegendMM LegendMM LegendMM 100.68     LegendNANA
09:00 20.9 14.9 69   LegendMM LegendMM LegendMM 100.68 25   LegendNANA
10:00 22.6 15.8 65   LegendMM LegendMM LegendMM 100.64 27   LegendNANA
11:00 23.3 16.1 64   LegendMM LegendMM LegendMM 100.65 28   LegendNANA
12:00 23.2 16.0 64   LegendMM LegendMM LegendMM 100.61 28   LegendNANA
13:00 23.5 15.8 62   LegendMM LegendMM LegendMM 100.59 28   LegendNANA
14:00 24.1 16.5 63   LegendMM LegendMM LegendMM 100.56 29   LegendNANA
15:00 25.0 16.5 59   LegendMM LegendMM LegendMM 100.54 30   LegendNANA
16:00 25.2 16.4 58   LegendMM LegendMM LegendMM 100.52 30   LegendNANA
17:00 24.2 16.3 61   LegendMM LegendMM LegendMM 100.48 29   LegendNANA
18:00 23.8 16.2 62   LegendMM LegendMM LegendMM 100.48 29   LegendNANA
19:00 22.6 15.5 64   LegendMM LegendMM LegendMM 100.53 27   LegendNANA
20:00 21.7 15.2 67   LegendMM LegendMM LegendMM 100.55 26   LegendNANA
21:00 21.5 15.8 70   LegendMM LegendMM LegendMM 100.60 26   LegendNANA
22:00 21.9 16.1 70   LegendMM LegendMM LegendMM 100.61 27   LegendNANA
23:00 21.2 15.5 70   LegendMM LegendMM LegendMM 100.60 25   LegendNANA

Notes on Data Quality.

Legend

  • E = Estimated
  • M = Missing
  • NA = Not Available*
  • [empty] = Indicates an unobserved value
Date modified: